x

Sentry Shoal (46131) Wave Buoy

5:00 - Fri 20th Jan 2017 All times are PST. -8 hours from GMT.

  • Sig Wave height 2.0ft
  • Peak Period 3s
  • Wind
    13mph, 16mph gusts
  • Sea Temp 47°f
  • Air Temp 45°f
  • Sea Pressure 991.9mb
  • Sentry Shoal
  • Sentry Shoal

More Historic Weather Station data

Upgrade to MSW Pro to gain access to the past 30 days of data for over 8000 Wavebouys and Weather Stations around the globe.

Join Pro

Comparision Forecast

View Surf forecast
   
ven. 01/20 5:00 2ft 3s 13 16 mph 991.9mb 47f 45f
4:00 2.5ft 4s 16 18 mph 992.5mb 47f 45f
3:00 2.5ft 4s 18 22 mph 993mb 47f 45f
2:00 3ft 4s 16 18 mph 993.5mb 47f 46f
1:00 3ft 4s 16 18 mph 993.8mb 47f 46f
12:00 3.5ft 4s 22 27 mph 993.7mb 47f 46f
jeu. 01/19 11:00 3ft 4s 22 29 mph 994.1mb 47f 46f
10:00 3ft 4s 25 29 mph 994mb 47f 46f
9:00 2.5ft 4s 22 25 mph 994.1mb 47f 46f
8:00 3ft 4s 18 22 mph 994.4mb 47f 46f
7:00 3.5ft 4s 20 25 mph 994.5mb 47f 46f
6:00 3.5ft 4s 22 25 mph 994.7mb 47f 46f
5:00 3ft 4s 22 27 mph 994.7mb 47f 46f
4:00 2.5ft 4s 22 27 mph 994.5mb 47f 46f
3:00 3.5ft 4s 20 25 mph 994.5mb 47f 46f
2:00 3.5ft 4s 20 27 mph 994.3mb 47f 46f
1:00 3.5ft 4s 22 27 mph 994.5mb 47f 46f
12:00 3ft 4s 18 22 mph 994.7mb 47f 47f
11:00 3.5ft 4s 20 22 mph 995.1mb 47f 46f
10:00 3.5ft 4s 25 27 mph 994.3mb 47f 46f
9:00 3.5ft 4s 22 27 mph 994.2mb 47f 47f
8:00 3.5ft 4s 25 29 mph 993.5mb 47f 46f
7:00 3ft 4s 22 27 mph 993.2mb 47f 46f
6:00 3.5ft 4s 22 29 mph 992.8mb 47f 46f
5:00 3.5ft 4s 20 25 mph 992.6mb 47f 47f
4:00 3.5ft 4s 25 29 mph 991.8mb 47f 46f
3:00 2.5ft 4s 22 27 mph 991.3mb 47f 46f
2:00 2.5ft 4s 22 27 mph 990.3mb 47f 47f
1:00 2.5ft 3s 18 22 mph 989.6mb 47f 47f
12:00 2.5ft 3s 20 25 mph 988.5mb 47f 47f
mer. 01/18 11:00 2ft 4s 18 22 mph 988.2mb 47f 48f
10:00 2ft 3s 18 22 mph 987.7mb 47f 47f
9:00 3ft 4s 13 16 mph 987.8mb 47f 48f
8:00 3ft 4s 22 25 mph 987mb 47f 49f
7:00 3.5ft 5s 16 20 mph 987.2mb 47f 49f
6:00 3.5ft 4s 22 27 mph 987.4mb 47f 49f
5:00 4ft 5s 22 31 mph 987.4mb 47f 50f
4:00 4.5ft 5s 25 29 mph 987.1mb 47f 49f
3:00 5.5ft 7s 27 36 mph 986.8mb 47f 49f
2:00 6.5ft 5s 25 31 mph 985.9mb 47f 51f
1:00 8ft 6s 31 40 mph 985.5mb 47f 50f
12:00 8ft 5s 25 31 mph 984.7mb 47f 49f
11:00 6.5ft 5s 34 40 mph 983.5mb 47f 49f
10:00 6ft 5s 34 43 mph 983.3mb 47f 49f
9:00 5ft 5s 25 31 mph 985.1mb 47f 48f
8:00 5ft 6s 18 22 mph 986.2mb 47f 48f
7:00 5ft 4s 27 34 mph 986.8mb 47f 49f
6:00 5ft 6s 16 22 mph 987.8mb 47f 48f
5:00 5ft 6s 25 34 mph 988.2mb 47f 49f
4:00 5ft 6s 27 31 mph 989mb 47f 49f
3:00 5ft 6s 25 31 mph 989.7mb 47f 49f
2:00 5.5ft 6s 25 34 mph 990mb 47f 49f
1:00 5ft 6s 29 36 mph 989.5mb 47f 49f
12:00 6ft 6s 29 36 mph 989.1mb 47f 49f
mar. 01/17 11:00 6.5ft 6s 29 36 mph 988.9mb 47f 49f
10:00 6.5ft 5s 27 38 mph 988.6mb 47f 49f
9:00 6.5ft 5s 27 34 mph 988.4mb 47f 48f
8:00 6ft 6s 25 31 mph 988.4mb 47f 48f
7:00 6ft 6s 34 43 mph 988.8mb 47f 49f
6:00 6ft 6s 29 36 mph 989.4mb 47f 48f
5:00 7ft 6s 25 31 mph 991.5mb 47f 47f
4:00 7.5ft 5s 36 45 mph 992.5mb 47f 47f
3:00 5.5ft 6s 36 43 mph 993.6mb 47f 48f
2:00 5ft 6s 22 29 mph 994.7mb 47f 49f
1:00 6ft 5s 20 27 mph 996.2mb 47f 49f
12:00 6ft 6s 25 31 mph 997.5mb 47f 49f
11:00 6.5ft 6s 22 27 mph 998.6mb 47f 48f
10:00 6ft 6s 20 27 mph 999.4mb 47f 47f
9:00 6ft 5s 27
mph
999.6mb 47f 47f
8:00 5.5ft 5s 29 36 mph 1000mb 47f 46f
7:00 5ft 6s 27 34 mph 1000.8mb 47f 47f
6:00 5ft 5s 22 29 mph 1001.4mb 47f 46f
4:00 6.5ft 5s 34 40 mph 1002.5mb 47f 46f
3:00 6ft 6s 31 38 mph 1004.3mb 47f 46f
2:00 6ft 6s 34 40 mph 1005.4mb 46f 46f
1:00 6ft 6s 27 31 mph 1007.5mb 46f 45f
12:00 7ft 6s 34 40 mph 1007.9mb 46f 45f
lun. 01/16 11:00 7ft 6s 34 40 mph 1008.1mb 46f 45f
10:00 6ft 6s 36 43 mph 1007.8mb 46f 45f
9:00 4.5ft 5s 29 36 mph 1008.7mb 46f 45f
8:00 4ft 5s 25 29 mph 1009.5mb 46f 45f
7:00 4.5ft 5s 25 29 mph 1010mb 46f 44f
6:00 4.5ft 5s 29 34 mph 1010.4mb 46f 43f
5:00 4.5ft 5s 27 34 mph 1012mb 46f 43f
4:00 4ft 5s 27 29 mph 1013mb 46f 44f
3:00 3.5ft 4s 25 29 mph 1013.2mb 46f 44f